EZY26RW EDDH-EGLL

Flight info

Callsign EZY26RW
Flight time 1h 13m
Altitude 36000
Route WSN5G/33 WSN N125 ITMIZ DCT ABNED L980 LOGAN
Aircraft A320/M-SDE3FGHIRWY/LB1

Departure

Time 2026-05-07 19:59
Airport Hamburg Helmut Schmidt Airport (EDDH)

Arrival

Time 2026-05-07 21:12
Airport London Heathrow Airport (EGLL)
Time Latitude Longitude Altitude Speed Heading
2026-05-07 19:36 53.63373 10.00341 42 ft 0 kts 86°
2026-05-07 19:37 53.63112 10.00373 43 ft 0 kts 87°
2026-05-07 19:50 53.63112 10.00372 43 ft 0 kts 87°
2026-05-07 19:50 53.63111 10.00355 42 ft 2 kts 86°
2026-05-07 19:50 53.63110 10.00329 41 ft 2 kts 87°
2026-05-07 19:51 53.63109 10.00305 40 ft 2 kts 87°
2026-05-07 19:51 53.63108 10.00280 39 ft 2 kts 87°
2026-05-07 19:51 53.63108 10.00254 38 ft 2 kts 87°
2026-05-07 19:51 53.63107 10.00236 37 ft 0 kts 87°
2026-05-07 19:52 53.63107 10.00216 37 ft 2 kts 116°
2026-05-07 19:52 53.63118 10.00198 36 ft 2 kts 162°
2026-05-07 19:52 53.63125 10.00196 36 ft 1 kts 186°
2026-05-07 19:52 53.63130 10.00197 36 ft 0 kts 178°
2026-05-07 19:53 53.63130 10.00196 36 ft 0 kts 178°
2026-05-07 19:54 53.63126 10.00197 36 ft 2 kts 178°
2026-05-07 19:54 53.63081 10.00200 37 ft 6 kts 179°
2026-05-07 19:55 53.63033 10.00142 37 ft 13 kts 220°
2026-05-07 19:55 53.62969 10.00070 36 ft 13 kts 211°
2026-05-07 19:55 53.62913 10.00031 35 ft 9 kts 179°
2026-05-07 19:55 53.62848 10.00067 36 ft 10 kts 152°
2026-05-07 19:56 53.62778 10.00130 38 ft 11 kts 152°
2026-05-07 19:56 53.62703 10.00194 41 ft 12 kts 153°
2026-05-07 19:56 53.62639 10.00248 43 ft 4 kts 153°
2026-05-07 19:56 53.62603 10.00264 43 ft 6 kts 190°
2026-05-07 19:57 53.62559 10.00168 43 ft 12 kts 244°
2026-05-07 19:57 53.62543 10.00033 44 ft 12 kts 313°
2026-05-07 19:57 53.62553 10.00020 43 ft 0 kts 329°
2026-05-07 19:57 53.62558 10.00015 43 ft 2 kts 329°
2026-05-07 19:58 53.62580 9.99994 43 ft 5 kts 332°
2026-05-07 19:58 53.62675 9.99910 38 ft 43 kts 334°
2026-05-07 19:58 53.63169 9.99488 32 ft 113 kts 334°
2026-05-07 19:58 53.64038 9.98734 111 ft 159 kts 334°
2026-05-07 19:59 53.65040 9.97814 586 ft 171 kts 334°
2026-05-07 19:59 53.66093 9.96827 1229 ft 176 kts 335°
2026-05-07 19:59 53.67170 9.95820 1818 ft 184 kts 336°
2026-05-07 19:59 53.68285 9.94778 2409 ft 183 kts 335°
2026-05-07 20:00 53.69415 9.93766 2896 ft 189 kts 339°
2026-05-07 20:00 53.70628 9.92730 3227 ft 207 kts 327°
2026-05-07 20:00 53.71482 9.90634 3464 ft 237 kts 283°
2026-05-07 20:00 53.71365 9.87817 3876 ft 254 kts 251°
2026-05-07 20:01 53.70725 9.84914 4347 ft 271 kts 249°
2026-05-07 20:01 53.70058 9.81915 4819 ft 277 kts 250°
2026-05-07 20:01 53.69407 9.78837 4992 ft 278 kts 251°
2026-05-07 20:01 53.68790 9.75800 5014 ft 277 kts 251°
2026-05-07 20:02 53.68177 9.72705 5000 ft 276 kts 251°
2026-05-07 20:02 53.67574 9.69640 5010 ft 276 kts 251°
2026-05-07 20:02 53.66972 9.66585 5021 ft 276 kts 251°
2026-05-07 20:02 53.66361 9.63485 5009 ft 276 kts 251°
2026-05-07 20:03 53.65752 9.60416 5016 ft 277 kts 250°
2026-05-07 20:03 53.64989 9.57493 4991 ft 276 kts 240°
2026-05-07 20:03 53.63959 9.54769 5010 ft 276 kts 234°
2026-05-07 20:03 53.62844 9.52162 5004 ft 275 kts 233°
2026-05-07 20:04 53.61709 9.49559 4997 ft 275 kts 233°
2026-05-07 20:04 53.60574 9.46950 4994 ft 275 kts 233°
2026-05-07 20:04 53.59448 9.44349 4995 ft 275 kts 233°
2026-05-07 20:04 53.58333 9.41767 4994 ft 275 kts 233°
2026-05-07 20:05 53.57204 9.39146 4996 ft 275 kts 233°
2026-05-07 20:05 53.56090 9.36562 4994 ft 275 kts 233°
2026-05-07 20:05 53.54963 9.33948 4993 ft 275 kts 232°
2026-05-07 20:05 53.53842 9.31352 5074 ft 280 kts 232°
2026-05-07 20:06 53.52698 9.28706 5749 ft 285 kts 233°
2026-05-07 20:06 53.51549 9.26055 6768 ft 282 kts 233°
2026-05-07 20:06 53.50407 9.23418 7655 ft 283 kts 233°
2026-05-07 20:06 53.49250 9.20750 8474 ft 286 kts 233°
2026-05-07 20:07 53.48076 9.18041 9268 ft 289 kts 233°
2026-05-07 20:07 53.46894 9.15317 9830 ft 291 kts 233°
2026-05-07 20:07 53.45703 9.12578 10097 ft 292 kts 233°
2026-05-07 20:07 53.44501 9.09814 10116 ft 292 kts 233°
2026-05-07 20:08 53.43298 9.07052 10306 ft 299 kts 233°
2026-05-07 20:08 53.42048 9.04187 10734 ft 312 kts 233°
2026-05-07 20:08 53.40756 9.01230 11433 ft 316 kts 233°
2026-05-07 20:08 53.39460 8.98269 12142 ft 318 kts 233°
2026-05-07 20:09 53.38172 8.95329 12790 ft 321 kts 234°
2026-05-07 20:09 53.36839 8.92289 13437 ft 324 kts 234°
2026-05-07 20:09 53.35549 8.89236 14073 ft 326 kts 238°
2026-05-07 20:10 53.33572 8.82393 15332 ft 330 kts 250°
2026-05-07 20:10 53.32782 8.78803 15929 ft 332 kts 250°
2026-05-07 20:10 53.31992 8.75168 16515 ft 335 kts 250°
2026-05-07 20:10 53.31198 8.71545 17086 ft 337 kts 250°
2026-05-07 20:11 53.30389 8.67874 17644 ft 339 kts 250°
2026-05-07 20:11 53.29578 8.64196 18191 ft 342 kts 250°
2026-05-07 20:11 53.28759 8.60449 18724 ft 344 kts 250°
2026-05-07 20:11 53.27935 8.56684 19250 ft 347 kts 250°
2026-05-07 20:12 53.27105 8.52900 19753 ft 350 kts 250°
2026-05-07 20:12 53.26296 8.49087 20262 ft 352 kts 252°
2026-05-07 20:12 53.25562 8.45214 20763 ft 354 kts 253°
2026-05-07 20:12 53.24821 8.41264 21257 ft 357 kts 253°
2026-05-07 20:13 53.24084 8.37344 21733 ft 359 kts 253°
2026-05-07 20:13 53.23330 8.33346 22203 ft 361 kts 252°
2026-05-07 20:13 53.22582 8.29392 22667 ft 363 kts 252°
2026-05-07 20:13 53.21815 8.25348 23131 ft 365 kts 252°
2026-05-07 20:14 53.21048 8.21315 23576 ft 367 kts 252°
2026-05-07 20:14 53.20277 8.17273 23992 ft 370 kts 252°
2026-05-07 20:14 53.19496 8.13182 24396 ft 373 kts 252°
2026-05-07 20:14 53.18717 8.09081 24800 ft 375 kts 252°
2026-05-07 20:15 53.17937 8.04930 25213 ft 377 kts 252°
2026-05-07 20:15 53.17162 8.00816 25604 ft 379 kts 252°
2026-05-07 20:15 53.16363 7.96580 26005 ft 381 kts 252°
2026-05-07 20:15 53.15570 7.92392 26390 ft 383 kts 252°
2026-05-07 20:16 53.14767 7.88155 26775 ft 385 kts 252°
2026-05-07 20:16 53.13963 7.83929 27150 ft 387 kts 252°
2026-05-07 20:16 53.13150 7.79671 27521 ft 389 kts 252°
2026-05-07 20:16 53.12324 7.75357 27891 ft 391 kts 252°
2026-05-07 20:17 53.11498 7.71052 28252 ft 393 kts 252°
2026-05-07 20:17 53.10647 7.66765 28602 ft 395 kts 250°
2026-05-07 20:17 53.09651 7.62540 28942 ft 397 kts 248°
2026-05-07 20:17 53.08573 7.58284 29278 ft 398 kts 247°
2026-05-07 20:18 53.07497 7.54058 29597 ft 400 kts 247°
2026-05-07 20:18 53.06409 7.49794 29903 ft 403 kts 247°
2026-05-07 20:18 53.05321 7.45539 30200 ft 405 kts 247°
2026-05-07 20:18 53.04208 7.41192 30492 ft 407 kts 247°
2026-05-07 20:19 53.03112 7.36924 30780 ft 409 kts 247°
2026-05-07 20:19 53.01996 7.32579 31069 ft 410 kts 246°
2026-05-07 20:19 53.00873 7.28219 31331 ft 412 kts 246°
2026-05-07 20:19 52.99742 7.23835 31586 ft 414 kts 246°
2026-05-07 20:20 52.98610 7.19454 31823 ft 416 kts 246°
2026-05-07 20:20 52.97477 7.15081 32068 ft 417 kts 246°
2026-05-07 20:20 52.96326 7.10647 32315 ft 419 kts 246°
2026-05-07 20:20 52.95182 7.06245 32547 ft 421 kts 246°
2026-05-07 20:21 52.94020 7.01788 32816 ft 421 kts 246°
2026-05-07 20:21 52.92862 6.97351 33128 ft 420 kts 246°
2026-05-07 20:21 52.91707 6.92931 33430 ft 419 kts 246°
2026-05-07 20:21 52.90553 6.88526 33704 ft 419 kts 246°
2026-05-07 20:22 52.89403 6.84143 33966 ft 419 kts 246°
2026-05-07 20:22 52.88249 6.79757 34234 ft 419 kts 246°
2026-05-07 20:22 52.87085 6.75336 34476 ft 419 kts 246°
2026-05-07 20:22 52.85915 6.70905 34672 ft 420 kts 245°
2026-05-07 20:23 52.84757 6.66532 34854 ft 421 kts 245°
2026-05-07 20:23 52.83584 6.62110 35026 ft 422 kts 245°
2026-05-07 20:23 52.82413 6.57705 35190 ft 422 kts 245°
2026-05-07 20:23 52.81227 6.53251 35356 ft 423 kts 245°
2026-05-07 20:24 52.80054 6.48857 35513 ft 424 kts 246°
2026-05-07 20:24 52.78871 6.44430 35678 ft 424 kts 246°
2026-05-07 20:24 52.77669 6.39939 35844 ft 425 kts 246°
2026-05-07 20:24 52.76482 6.35513 36000 ft 425 kts 246°
2026-05-07 20:25 52.75287 6.31069 36093 ft 426 kts 245°
2026-05-07 20:25 52.72884 6.22148 36102 ft 426 kts 245°
2026-05-07 20:26 52.70483 6.13274 36108 ft 426 kts 245°
2026-05-07 20:26 52.68070 6.04385 36112 ft 426 kts 245°
2026-05-07 20:27 52.65655 5.95530 36108 ft 426 kts 245°
2026-05-07 20:27 52.63228 5.86664 36109 ft 426 kts 245°
2026-05-07 20:28 52.60797 5.77817 36109 ft 426 kts 245°
2026-05-07 20:28 52.58377 5.69042 36103 ft 425 kts 245°
2026-05-07 20:29 52.55925 5.60186 36099 ft 425 kts 245°
2026-05-07 20:29 52.53483 5.51405 36094 ft 425 kts 245°
2026-05-07 20:30 52.51022 5.42584 36094 ft 431 kts 245°
2026-05-07 20:30 52.48499 5.33576 36093 ft 439 kts 244°
2026-05-07 20:31 52.45937 5.24461 36097 ft 446 kts 244°
2026-05-07 20:31 52.43334 5.15239 36094 ft 447 kts 244°
2026-05-07 20:32 52.40734 5.06059 36099 ft 447 kts 244°
2026-05-07 20:32 52.38110 4.96830 36099 ft 447 kts 244°
2026-05-07 20:33 52.35492 4.87666 36101 ft 447 kts 244°
2026-05-07 20:33 52.32864 4.78505 36100 ft 446 kts 244°
2026-05-07 20:34 52.30239 4.69383 36102 ft 446 kts 244°
2026-05-07 20:34 52.27591 4.60216 36101 ft 446 kts 244°
2026-05-07 20:35 52.24969 4.51173 36101 ft 445 kts 245°
2026-05-07 20:35 52.22318 4.42067 36101 ft 444 kts 245°
2026-05-07 20:36 52.19666 4.32993 36101 ft 444 kts 244°
2026-05-07 20:36 52.17012 4.23945 36102 ft 444 kts 244°
2026-05-07 20:37 52.14352 4.14916 36102 ft 444 kts 244°
2026-05-07 20:37 52.11687 4.05898 36100 ft 444 kts 244°
2026-05-07 20:38 52.09018 3.96905 36100 ft 444 kts 244°
2026-05-07 20:38 52.06346 3.87934 36100 ft 443 kts 244°
2026-05-07 20:39 52.03665 3.78968 36101 ft 441 kts 244°
2026-05-07 20:39 52.00991 3.70055 36094 ft 442 kts 244°
2026-05-07 20:40 51.98297 3.61104 36099 ft 442 kts 244°
2026-05-07 20:40 51.95622 3.52254 36101 ft 441 kts 244°
2026-05-07 20:41 51.92920 3.43351 36102 ft 441 kts 244°
2026-05-07 20:41 51.90212 3.34467 36097 ft 441 kts 243°
2026-05-07 20:42 51.87658 3.25526 36104 ft 440 kts 248°
2026-05-07 20:42 51.85683 3.16257 36097 ft 439 kts 254°
2026-05-07 20:43 51.84327 3.06636 36094 ft 439 kts 259°
2026-05-07 20:43 51.83565 2.96852 36098 ft 440 kts 263°
2026-05-07 20:44 51.82938 2.87121 36094 ft 440 kts 263°
2026-05-07 20:44 51.82293 2.77273 36101 ft 440 kts 263°
2026-05-07 20:45 51.81642 2.67521 36094 ft 440 kts 263°
2026-05-07 20:45 51.81318 2.62734 36097 ft 425 kts 263°
2026-05-07 20:45 51.80996 2.58049 36099 ft 419 kts 263°
2026-05-07 20:46 51.80348 2.48755 36103 ft 417 kts 263°
2026-05-07 20:46 51.79696 2.39512 36096 ft 417 kts 263°
2026-05-07 20:47 51.79034 2.30235 36098 ft 416 kts 262°
2026-05-07 20:47 51.78703 2.25649 35941 ft 414 kts 262°
2026-05-07 20:47 51.78374 2.21017 35282 ft 421 kts 263°
2026-05-07 20:47 51.78086 2.16283 34409 ft 429 kts 264°
2026-05-07 20:48 51.77816 2.11550 33683 ft 430 kts 264°
2026-05-07 20:48 51.77541 2.06755 33011 ft 429 kts 264°
2026-05-07 20:48 51.77263 2.01978 32305 ft 429 kts 264°
2026-05-07 20:48 51.76982 1.97230 31737 ft 425 kts 264°
2026-05-07 20:49 51.76700 1.92511 31249 ft 420 kts 264°
2026-05-07 20:49 51.76421 1.87893 30711 ft 416 kts 264°
2026-05-07 20:49 51.76139 1.83270 30133 ft 412 kts 264°
2026-05-07 20:49 51.75861 1.78754 29695 ft 406 kts 264°
2026-05-07 20:50 51.75583 1.74253 29280 ft 399 kts 264°
2026-05-07 20:50 51.75310 1.69886 28880 ft 392 kts 264°
2026-05-07 20:50 51.75039 1.65576 28484 ft 386 kts 264°
2026-05-07 20:50 51.74768 1.61287 28090 ft 379 kts 264°
2026-05-07 20:51 51.74506 1.57120 27686 ft 374 kts 264°
2026-05-07 20:51 51.74245 1.53012 27286 ft 368 kts 264°
2026-05-07 20:51 51.73984 1.48919 26885 ft 363 kts 264°
2026-05-07 20:51 51.73726 1.44913 26265 ft 364 kts 264°
2026-05-07 20:52 51.73462 1.40846 25306 ft 374 kts 264°
2026-05-07 20:52 51.73187 1.36637 24283 ft 384 kts 264°
2026-05-07 20:52 51.72905 1.32336 23247 ft 394 kts 263°
2026-05-07 20:52 51.72615 1.27940 22209 ft 403 kts 263°
2026-05-07 20:53 51.72316 1.23429 21392 ft 406 kts 263°
2026-05-07 20:53 51.72019 1.18967 20802 ft 403 kts 263°
2026-05-07 20:53 51.71720 1.14510 20243 ft 399 kts 263°
2026-05-07 20:53 51.71424 1.10116 19663 ft 397 kts 263°
2026-05-07 20:54 51.71124 1.05695 19081 ft 394 kts 263°
2026-05-07 20:54 51.70827 1.01365 18503 ft 392 kts 263°
2026-05-07 20:54 51.70527 0.97006 17933 ft 389 kts 263°
2026-05-07 20:54 51.70232 0.92722 17383 ft 386 kts 263°
2026-05-07 20:55 51.69939 0.88480 16845 ft 383 kts 263°
2026-05-07 20:55 51.69642 0.84213 16264 ft 381 kts 263°
2026-05-07 20:55 51.69350 0.80040 15738 ft 378 kts 263°
2026-05-07 20:55 51.69053 0.75853 15180 ft 375 kts 263°
2026-05-07 20:56 51.68761 0.71738 14692 ft 371 kts 262°
2026-05-07 20:56 51.68468 0.67618 14262 ft 366 kts 262°
2026-05-07 20:56 51.68183 0.63626 13895 ft 360 kts 263°
2026-05-07 20:56 51.67897 0.59649 13487 ft 355 kts 263°
2026-05-07 20:57 51.67615 0.55755 13156 ft 350 kts 263°
2026-05-07 20:57 51.67335 0.51897 12761 ft 344 kts 263°
2026-05-07 20:57 51.67120 0.48106 12396 ft 339 kts 266°
2026-05-07 20:57 51.66991 0.44342 11937 ft 339 kts 266°
2026-05-07 20:58 51.66875 0.40520 11273 ft 345 kts 266°
2026-05-07 20:58 51.66756 0.36670 10739 ft 344 kts 267°
2026-05-07 20:58 51.66637 0.32883 10322 ft 341 kts 266°
2026-05-07 20:58 51.66514 0.29104 9844 ft 338 kts 266°
2026-05-07 20:59 51.66388 0.25330 9424 ft 336 kts 266°
2026-05-07 20:59 51.66260 0.21618 8951 ft 334 kts 266°
2026-05-07 20:59 51.66132 0.17912 8531 ft 332 kts 266°
2026-05-07 20:59 51.66001 0.14220 8127 ft 329 kts 266°
2026-05-07 21:00 51.65870 0.10566 8041 ft 330 kts 266°
2026-05-07 21:00 51.65737 0.06887 8054 ft 331 kts 266°
2026-05-07 21:00 51.65602 0.03186 8060 ft 332 kts 266°
2026-05-07 21:00 51.65466 -0.00544 8063 ft 332 kts 266°
2026-05-07 21:01 51.65327 -0.04284 8061 ft 333 kts 266°
2026-05-07 21:01 51.65186 -0.07993 8070 ft 333 kts 266°
2026-05-07 21:01 51.65043 -0.11689 8064 ft 333 kts 266°
2026-05-07 21:01 51.64898 -0.15390 8073 ft 333 kts 266°
2026-05-07 21:02 51.64750 -0.19136 8063 ft 333 kts 266°
2026-05-07 21:02 51.64606 -0.22836 8067 ft 332 kts 266°
2026-05-07 21:02 51.64463 -0.26538 8068 ft 332 kts 266°
2026-05-07 21:02 51.64325 -0.30211 8068 ft 331 kts 266°
2026-05-07 21:03 51.64186 -0.33901 8072 ft 331 kts 266°
2026-05-07 21:03 51.64049 -0.37586 8075 ft 331 kts 266°
2026-05-07 21:03 51.63911 -0.41284 8077 ft 331 kts 266°
2026-05-07 21:03 51.63775 -0.44949 7933 ft 326 kts 265°
2026-05-07 21:04 51.63431 -0.48508 7493 ft 323 kts 257°
2026-05-07 21:04 51.62893 -0.51941 7316 ft 313 kts 255°
2026-05-07 21:04 51.62347 -0.55291 7133 ft 302 kts 255°
2026-05-07 21:04 51.61849 -0.58438 6845 ft 285 kts 256°
2026-05-07 21:05 51.61385 -0.61465 6479 ft 272 kts 256°
2026-05-07 21:05 51.60948 -0.64374 5910 ft 268 kts 256°
2026-05-07 21:05 51.60519 -0.67265 5260 ft 267 kts 255°
2026-05-07 21:05 51.60095 -0.70146 4630 ft 265 kts 255°
2026-05-07 21:06 51.59672 -0.73005 4005 ft 264 kts 255°
2026-05-07 21:06 51.59070 -0.75751 3375 ft 259 kts 233°
2026-05-07 21:06 51.57735 -0.77440 3028 ft 244 kts 197°
2026-05-07 21:06 51.56116 -0.77777 2985 ft 228 kts 173°
2026-05-07 21:07 51.54610 -0.77333 2977 ft 214 kts 167°
2026-05-07 21:07 51.53185 -0.76834 2980 ft 209 kts 167°
2026-05-07 21:07 51.51751 -0.76366 2983 ft 209 kts 168°
2026-05-07 21:07 51.50328 -0.75936 2978 ft 202 kts 168°
2026-05-07 21:08 51.48997 -0.75544 2973 ft 192 kts 165°
2026-05-07 21:08 51.47860 -0.74549 2956 ft 188 kts 125°
2026-05-07 21:08 51.47484 -0.72615 2954 ft 182 kts 93°
2026-05-07 21:08 51.47551 -0.70598 2749 ft 184 kts 86°
2026-05-07 21:09 51.47663 -0.68582 2516 ft 185 kts 89°
2026-05-07 21:09 51.47719 -0.66482 2276 ft 190 kts 91°
2026-05-07 21:09 51.47733 -0.64387 2027 ft 189 kts 91°
2026-05-07 21:09 51.47733 -0.62343 1848 ft 177 kts 92°
2026-05-07 21:10 51.47732 -0.60400 1570 ft 169 kts 92°
2026-05-07 21:10 51.47734 -0.58617 1313 ft 155 kts 92°
2026-05-07 21:10 51.47737 -0.56951 1135 ft 146 kts 92°
2026-05-07 21:10 51.47739 -0.55385 927 ft 133 kts 92°
2026-05-07 21:11 51.47742 -0.53935 755 ft 129 kts 91°
2026-05-07 21:11 51.47745 -0.52513 597 ft 128 kts 91°
2026-05-07 21:11 51.47745 -0.49666 252 ft 127 kts 90°
2026-05-07 21:12 51.47751 -0.48258 98 ft 126 kts 91°
2026-05-07 21:12 51.47752 -0.47020 85 ft 90 kts 88°
2026-05-07 21:12 51.47757 -0.46335 82 ft 27 kts 90°
2026-05-07 21:12 51.47704 -0.46146 81 ft 14 kts 147°
2026-05-07 21:13 51.47676 -0.46117 80 ft 0 kts 145°
2026-05-07 21:13 51.47620 -0.46057 81 ft 9 kts 145°
2026-05-07 21:13 51.47614 -0.46050 81 ft 0 kts 145°
2026-05-07 21:13 51.47600 -0.46048 82 ft 7 kts 196°
2026-05-07 21:14 51.47595 -0.46165 80 ft 8 kts 269°
2026-05-07 21:14 51.47595 -0.46299 80 ft 15 kts 269°
2026-05-07 21:14 51.47592 -0.46505 82 ft 21 kts 268°
2026-05-07 21:14 51.47590 -0.46758 82 ft 12 kts 269°
2026-05-07 21:15 51.47574 -0.46896 82 ft 15 kts 241°
2026-05-07 21:15 51.47523 -0.46928 81 ft 0 kts 174°
2026-05-07 21:15 51.47516 -0.46929 81 ft 5 kts 195°
2026-05-07 21:15 51.47494 -0.47063 82 ft 20 kts 267°
2026-05-07 21:16 51.47492 -0.47245 84 ft 6 kts 268°
2026-05-07 21:16 51.47490 -0.47334 84 ft 9 kts 269°
2026-05-07 21:16 51.47489 -0.47445 84 ft 11 kts 269°
2026-05-07 21:16 51.47488 -0.47584 82 ft 14 kts 268°
2026-05-07 21:17 51.47490 -0.47759 80 ft 16 kts 270°
2026-05-07 21:17 51.47488 -0.47949 80 ft 17 kts 268°
2026-05-07 21:17 51.47487 -0.48156 77 ft 20 kts 270°
2026-05-07 21:17 51.47487 -0.48262 77 ft 5 kts 270°
2026-05-07 21:18 51.47487 -0.48332 77 ft 7 kts 269°
2026-05-07 21:18 51.47487 -0.48412 79 ft 7 kts 268°
2026-05-07 21:18 51.47406 -0.48476 78 ft 23 kts 179°
2026-05-07 21:18 51.47218 -0.48471 77 ft 15 kts 178°
2026-05-07 21:19 51.47108 -0.48474 77 ft 16 kts 180°
2026-05-07 21:19 51.46992 -0.48471 77 ft 16 kts 178°
2026-05-07 21:19 51.46937 -0.48468 78 ft 0 kts 178°
2026-05-07 21:19 51.46930 -0.48468 78 ft 0 kts 178°
2026-05-07 21:20 51.46905 -0.48467 78 ft 14 kts 177°
2026-05-07 21:20 51.46752 -0.48489 77 ft 20 kts 227°
2026-05-07 21:20 51.46741 -0.48719 78 ft 15 kts 287°
2026-05-07 21:20 51.46789 -0.48751 79 ft 0 kts 359°
2026-05-07 21:22 51.46807 -0.48751 79 ft 6 kts 359°
2026-05-07 21:22 51.46876 -0.48700 77 ft 11 kts 84°
2026-05-07 21:22 51.46915 -0.48648 77 ft 7 kts 357°
2026-05-07 21:23 51.46927 -0.48648 77 ft 0 kts 358°